Location: Unspecified
(0.0000°N, 0.0000°E)
Time: 07:44:44
(UTC+00:00)

MIDAS 4 DEB - Pass Details

Date: 16 November 2025
Orbit: 3306 x 3926 km, 95.8° (Epoch: 14 April)

Event Time Altitude Azimuth Distance (km) Brightness Sun altitude
Rises 20:23:32 0° 12° (NNE) 7,431 ? -37.1°
Enters shadow 20:24:46 - 12° (NNE) 7,125 ? -37.4°
Exits shadow 20:38:05 48° 17° (NNE) 4,248 ? -40.4°
Maximum altitude 20:45:33 86° 102° (ESE) 3,671 ? -42.1°
Drops below altitude 10° 21:05:11 10° 190° (S) 6,975 ? -46.5°
Sets 21:09:43 0° 189° (S) 8,050 ? -47.5°
